Regional Weather Roundup
Issued by NWS Bismarck, ND

Home | Current Version | Previous Version | Graphics & Text | Print | Product List | Glossary On
Versions: 1 2 3 4 5 6 7 8 9 10 11 12 13 14 15 16 17 18 19 20 21 22 23 24 25 26 27 28 29 30 31 32 33 34 35 36 37 38 39 40 41 42 43 44 45 46 47 48 49 50
000
ASUS43 KBIS 191020
RWRBIS

NWR BROADCAST TEXT
NATIONAL WEATHER SERVICE BISMARCK ND
500 AM CDT SAT APR 19 2014

NOTE: "FAIR" INDICATES FEW OR NO CLOUDS BELOW 12,000 FEET WITH NO
SIGNIFICANT WEATHER AND/OR OBSTRUCTIONS TO VISIBILITY.


CITY           SKY/WX    TMP DP  RH WIND       PRES   REMARKS
WILLISTON      CLEAR     37  32  82 S8        29.72S
MINOT          PTCLDY    37  34  89 SW10      29.70R
MINOT AFB      PTCLDY    35  35  99 SW10      29.68S
BISMARCK       PTCLDY    43  37  79 W13       29.80R
DICKINSON      CLEAR     34  28  79 W9        29.79R
GARRISON         N/A     37  34  89 W7        29.73F
HETTINGER ARPT CLEAR     33  27  78 W7        29.85R
JAMESTOWN      MOCLDY    47  40  76 NW22G33   29.71R
CARRINGTON     FAIR      39  39 100 W18       29.73S
CROSBY         FAIR      34  34 100 S7        29.68S
HARVEY         FAIR      34  34 100 W10       29.73R FOG
HAZEN          FAIR      36  32  87 SW9       29.79R
LINTON         FAIR      41  39  93 NW6       29.80R
MANDAN         FAIR      39  36  87 W17       29.80R
OAKES          FAIR      50  41  71 W15G30    29.76R
RUGBY          FAIR      32  32 100 SW10      29.69S
STANLEY        FAIR      36  36 100 W13       29.71R
TIOGA          FAIR      36  36 100 SW17      29.73R
WATFORD CITY   FAIR      32  32 100 W7        29.74R
$$

CITY           SKY/WX    TMP DP  RH WIND       PRES   REMARKS
GRAND FORKS    MOCLDY    44  35  70 S10       29.72F
GRAND FORKS AF MOCLDY    46  35  66 S16       29.72S
DEVILS LAKE    CLEAR     37  30  75 W10       29.69F
FARGO          CLOUDY    50  36  58 S23G36    29.74S
CANDO          FAIR      32  28  86 SW6       29.70R
CAVALIER       FAIR      36  32  87 SE7       29.71F
GRAFTON        FAIR      39  34  81 SE13      29.71F
GWINNER        SUNNY     45  39  81 W3        29.75R
LANGDON        PTSUNNY   36  32  87 S9        29.68S
ROLLA          PTSUNNY   34  34 100 S5        29.67F
WALHALLA       FAIR      34  34 100 SE5       29.72R
$$

CITY           SKY/WX    TMP DP  RH WIND       PRES   REMARKS
ABERDEEN       CLOUDY    53  41  63 NW24G36   29.76R
MOBRIDGE       PTCLDY    45  35  68 NW10      29.78R
BUFFALO          N/A     35  27  72 W14       29.82R
RAPID CITY     CLOUDY    45  19  35 NW14      29.91R
GLASGOW        CLOUDY    40  35  83 W24G30    29.77R
SIDNEY         CLEAR     34  28  80 S9        29.77S
WOLF POINT     CLOUDY    42  32  67 W17       29.77R
GLENDIVE       CLEAR     37  25  60 SW14      29.83R
MILES CITY     CLEAR     38  25  59 W14       29.88R
BAKER          CLEAR     34  28  79 W9        29.86R
$$

CITY           SKY/WX    TMP DP  RH WIND       PRES   REMARKS
BILLINGS       PTCLDY    37  16  42 E3        29.93R
GREAT FALLS    FAIR      32  19  58 SW12      29.91S
REGINA         CLOUDY    39  37  93 W14       29.59R
ESTEVAN        CLEAR     34  34 100 SW8       29.65S
$$




USA.gov is the U.S. government's official web portal to all federal, state and local government web resources and services.